Terug naar catalogus

COSMOS 2251 DEB

ActiefLEO
NORAD 34058·DEBRIS·🇷🇺 Russia

Gelanceerd Jun 16, 1993 vanaf Plesetsk Cosmodrome

Loading…

Volgende Passages (komende 24 uur)

TLE

VersSource: Space-Track

Epoch: Sep 14, 2026, 11:46 UTC

1 34058U 93036JV  26257.49076204  .00000329  00000-0  31297-3 0  9994
2 34058  73.9301  91.0220 0378273  33.9535 350.1057 13.56367633868812

Volg COSMOS 2251 DEB in realtime met AllMySat

Download on the App Store